(°C)
(°C)
-3°
-3°
-4°
-4°
-5°
-5°
-5°
JJI
JJI
JJI
JJI
JJI
JJI
JI
(km/h)
16-23
16-25
16-28
17-29
18-32
20-35
20-36
(mm)
0
0
0
0
0
0
0
(%)
8
0
0
0
0
0
0

Podizanje Sunca

/ -14.5°
sun-icon
UV 0
08:25
16:11
Poslednja četvrt meseca (270°)
23:40
14:08

METAR za 55.6°S 37.27°I (UUWW)

Vreme Uslovi Temperatura/
Tačka rose
Vetar Vidljivost Prognoza Oblaci Pritisak Promena Neobrađeno
MVFR 2°C / 0°C 160º 6kt 9000m - Overcast 1000ft 1007 No Significant change. Runway 24: Damp, 51-100% contamination with <1mm, friction coefficient 0.55. UUWW 270300Z 16003MPS 9000 OVC010 02/00 Q1007 R24/190055 NOSIG
IFR 2°C / 0°C 160º 6kt 9000m - Overcast 900ft 1007 No Significant change. Runway 24: Damp, 51-100% contamination with <1mm, friction coefficient 0.55. UUWW 270230Z 16003MPS 9000 OVC009 02/00 Q1007 R24/190055 NOSIG
IFR 2°C / 0°C 160º 6kt 9000m - Overcast 900ft 1007 No Significant change. Runway 24: Damp, 51-100% contamination with <1mm, friction coefficient 0.55. UUWW 270200Z 16003MPS 9000 OVC009 02/00 Q1007 R24/190055 NOSIG
IFR 2°C / 1°C 150º 6kt >10km - Overcast 700ft 1007 No Significant change. Runway 24: Damp, 51-100% contamination with <1mm, friction coefficient 0.55. UUWW 270130Z 15003MPS 9999 OVC007 02/01 Q1007 R24/190055 NOSIG
IFR 2°C / 1°C 150º 6kt 9000m - Overcast 900ft 1007 No Significant change. Runway 24: Damp, 51-100% contamination with <1mm, friction coefficient 0.55. UUWW 270100Z 15003MPS 9000 OVC009 02/01 Q1007 R24/190055 NOSIG
IFR 2°C / 1°C 150º 6kt 6000m - Overcast 600ft 1007 No Significant change. Runway 24: Damp, 51-100% contamination with <1mm, friction coefficient 0.55. UUWW 270030Z 15003MPS 6000 OVC006 02/01 Q1007 R24/190055 NOSIG
LIFR 2°C / 1°C 170º 4kt 4100m Mist Vertical Visibility of 0ft. 1008 No Significant change. Runway 24: Damp, 51-100% contamination with <1mm, friction coefficient 0.55. UUWW 270000Z 17002MPS 4100 BR OVC004 02/01 Q1008 R24/190055 NOSIG
IFR 2°C / 1°C 180º 6kt 7000m - Overcast 500ft 1008 No Significant change. Runway 24: Damp, 51-100% contamination with <1mm, friction coefficient 0.55. UUWW 262330Z 18003MPS 7000 OVC005 02/01 Q1008 R24/190055 NOSIG
IFR 2°C / 1°C 200º 8kt 9000m - Overcast 800ft 1008 No Significant change. Runway 24: Damp, 51-100% contamination with <1mm, friction coefficient 0.55. UUWW 262300Z 20004MPS 9000 OVC008 02/01 Q1008 R24/190055 NOSIG
IFR 2°C / 0°C 200º 8kt >10km - Broken Clouds 900ft
Overcast 2600ft
1008 No Significant change. Runway 24: Damp, 51-100% contamination with <1mm, friction coefficient 0.55. UUWW 262230Z 20004MPS 9999 BKN009 OVC026 02/00 Q1008 R24/190055 NOSIG
MVFR 2°C / 0°C 200º 8kt >10km - Broken Clouds 1200ft
Overcast 2600ft
1008 No Significant change. Runway 24: Damp, 51-100% contamination with <1mm, friction coefficient 0.55. UUWW 262200Z 20004MPS 9999 BKN012 OVC026 02/M00 Q1008 R24/190055 NOSIG
MVFR 2°C / 0°C 200º 8kt >10km - Few Clouds 1500ft
Overcast 2800ft
1008 No Significant change. Runway 24: Damp, 51-100% contamination with <1mm, friction coefficient 0.55. UUWW 262130Z 20004MPS 9999 FEW015 OVC028 02/M00 Q1008 R24/190055 NOSIG
MVFR 2°C / 0°C 210º 8kt 9000m - Few Clouds 1300ft
Overcast 2500ft
1007 No Significant change. Runway 24: Damp, 51-100% contamination with <1mm, friction coefficient 0.55. UUWW 262100Z 21004MPS 9000 FEW013 OVC025 02/00 Q1007 R24/190055 NOSIG
MVFR 2°C / 0°C 200º 10kt 9000m - Broken Clouds 1300ft
Overcast 2500ft
1007 No Significant change. Runway 24: Damp, 51-100% contamination with <1mm, friction coefficient 0.55. UUWW 262030Z 20005MPS 9000 BKN013 OVC025 02/M00 Q1007 R24/190055 NOSIG
MVFR 2°C / 0°C 200º 10kt 9000m - Broken Clouds 1300ft
Overcast 2600ft
1007 No Significant change. Runway 24: Damp, 51-100% contamination with <1mm, friction coefficient 0.55. UUWW 262000Z 20005MPS 9000 BKN013 OVC026 02/M00 Q1007 R24/190055 NOSIG
MVFR 2°C / 0°C 200º 10kt >10km - Broken Clouds 1300ft
Overcast 3000ft
1007 No Significant change. Runway 24: Damp, 51-100% contamination with <1mm, friction coefficient 0.55. UUWW 261930Z 20005MPS 9999 BKN013 OVC030 02/M00 Q1007 R24/190055 NOSIG
MVFR 2°C / 0°C 210º 12kt >10km - Broken Clouds 1400ft
Overcast 3800ft
1007 No Significant change. Runway 24: Damp, 51-100% contamination with <1mm, friction coefficient 0.55. UUWW 261900Z 21006MPS 9999 BKN014 OVC038 02/M00 Q1007 R24/190055 NOSIG
MVFR 2°C / 0°C 210º 12kt Gust 21kt >10km - Broken Clouds 1400ft
Overcast 3600ft
1006 No Significant change. Runway 24: Damp, 51-100% contamination with <1mm, friction coefficient 0.55. UUWW 261830Z 21006G11MPS 9999 BKN014 OVC036 02/M00 Q1006 R24/190055 NOSIG
MVFR 2°C / -1°C 210º 12kt >10km - Overcast 1300ft 1006 No Significant change. Runway 24: Damp, 51-100% contamination with <1mm, friction coefficient 0.55. UUWW 261800Z 21006MPS 9999 OVC013 02/M01 Q1006 R24/190055 NOSIG
MVFR 2°C / 0°C 210º 12kt >10km - Overcast 1400ft 1006 No Significant change. Runway 24: Damp, 51-100% contamination with <1mm, friction coefficient 0.55. UUWW 261730Z 21006MPS 9999 OVC014 02/M00 Q1006 R24/190055 NOSIG
MVFR 2°C / -1°C 210º 12kt >10km - Overcast 1500ft 1006 No Significant change. Runway 24: Damp, 51-100% contamination with <1mm, friction coefficient 0.55. UUWW 261700Z 21006MPS 9999 OVC015 02/M01 Q1006 R24/190055 NOSIG
MVFR 2°C / -1°C 200º 12kt >10km - Overcast 1500ft 1006 No Significant change. Runway 24: Damp, 51-100% contamination with <1mm, friction coefficient 0.55. UUWW 261630Z 20006MPS 9999 OVC015 02/M01 Q1006 R24/190055 NOSIG
MVFR 2°C / -1°C 200º 12kt >10km - Overcast 1500ft 1006 No Significant change. Runway 24: Damp, 51-100% contamination with <1mm, friction coefficient 0.55. UUWW 261600Z 20006MPS 9999 OVC015 02/M01 Q1006 R24/190055 NOSIG
MVFR 2°C / -1°C 190º 10kt >10km - Overcast 1300ft 1006 No Significant change. Runway 24: Damp, 51-100% contamination with <1mm, friction coefficient 0.55. UUWW 261530Z 19005MPS 9999 OVC013 02/M01 Q1006 R24/190055 NOSIG

MVFR

2°C / 0°C

[Više]
Vetar 160º 6kt
Vidljivost 9000m
Prognoza -
Oblaci Overcast 1000ft
Pritisak 1007
Promena No Significant change. Runway 24: Damp, 51-100% contamination with <1mm, friction coefficient 0.55.
Neobrađeno UUWW 270300Z 16003MPS 9000 OVC010 02/00 Q1007 R24/190055 NOSIG

IFR

2°C / 0°C

[Više]
Vetar 160º 6kt
Vidljivost 9000m
Prognoza -
Oblaci Overcast 900ft
Pritisak 1007
Promena No Significant change. Runway 24: Damp, 51-100% contamination with <1mm, friction coefficient 0.55.
Neobrađeno UUWW 270230Z 16003MPS 9000 OVC009 02/00 Q1007 R24/190055 NOSIG

IFR

2°C / 0°C

[Više]
Vetar 160º 6kt
Vidljivost 9000m
Prognoza -
Oblaci Overcast 900ft
Pritisak 1007
Promena No Significant change. Runway 24: Damp, 51-100% contamination with <1mm, friction coefficient 0.55.
Neobrađeno UUWW 270200Z 16003MPS 9000 OVC009 02/00 Q1007 R24/190055 NOSIG

IFR

2°C / 1°C

[Više]
Vetar 150º 6kt
Vidljivost >10km
Prognoza -
Oblaci Overcast 700ft
Pritisak 1007
Promena No Significant change. Runway 24: Damp, 51-100% contamination with <1mm, friction coefficient 0.55.
Neobrađeno UUWW 270130Z 15003MPS 9999 OVC007 02/01 Q1007 R24/190055 NOSIG

IFR

2°C / 1°C

[Više]
Vetar 150º 6kt
Vidljivost 9000m
Prognoza -
Oblaci Overcast 900ft
Pritisak 1007
Promena No Significant change. Runway 24: Damp, 51-100% contamination with <1mm, friction coefficient 0.55.
Neobrađeno UUWW 270100Z 15003MPS 9000 OVC009 02/01 Q1007 R24/190055 NOSIG

IFR

2°C / 1°C

[Više]
Vetar 150º 6kt
Vidljivost 6000m
Prognoza -
Oblaci Overcast 600ft
Pritisak 1007
Promena No Significant change. Runway 24: Damp, 51-100% contamination with <1mm, friction coefficient 0.55.
Neobrađeno UUWW 270030Z 15003MPS 6000 OVC006 02/01 Q1007 R24/190055 NOSIG

LIFR

2°C / 1°C

[Više]
Vetar 170º 4kt
Vidljivost 4100m
Prognoza Mist
Oblaci Vertical Visibility of 0ft.
Pritisak 1008
Promena No Significant change. Runway 24: Damp, 51-100% contamination with <1mm, friction coefficient 0.55.
Neobrađeno UUWW 270000Z 17002MPS 4100 BR OVC004 02/01 Q1008 R24/190055 NOSIG

IFR

2°C / 1°C

[Više]
Vetar 180º 6kt
Vidljivost 7000m
Prognoza -
Oblaci Overcast 500ft
Pritisak 1008
Promena No Significant change. Runway 24: Damp, 51-100% contamination with <1mm, friction coefficient 0.55.
Neobrađeno UUWW 262330Z 18003MPS 7000 OVC005 02/01 Q1008 R24/190055 NOSIG

IFR

2°C / 1°C

[Više]
Vetar 200º 8kt
Vidljivost 9000m
Prognoza -
Oblaci Overcast 800ft
Pritisak 1008
Promena No Significant change. Runway 24: Damp, 51-100% contamination with <1mm, friction coefficient 0.55.
Neobrađeno UUWW 262300Z 20004MPS 9000 OVC008 02/01 Q1008 R24/190055 NOSIG

IFR

2°C / 0°C

[Više]
Vetar 200º 8kt
Vidljivost >10km
Prognoza -
Oblaci Broken Clouds 900ft
Overcast 2600ft
Pritisak 1008
Promena No Significant change. Runway 24: Damp, 51-100% contamination with <1mm, friction coefficient 0.55.
Neobrađeno UUWW 262230Z 20004MPS 9999 BKN009 OVC026 02/00 Q1008 R24/190055 NOSIG

MVFR

2°C / 0°C

[Više]
Vetar 200º 8kt
Vidljivost >10km
Prognoza -
Oblaci Broken Clouds 1200ft
Overcast 2600ft
Pritisak 1008
Promena No Significant change. Runway 24: Damp, 51-100% contamination with <1mm, friction coefficient 0.55.
Neobrađeno UUWW 262200Z 20004MPS 9999 BKN012 OVC026 02/M00 Q1008 R24/190055 NOSIG

MVFR

2°C / 0°C

[Više]
Vetar 200º 8kt
Vidljivost >10km
Prognoza -
Oblaci Few Clouds 1500ft
Overcast 2800ft
Pritisak 1008
Promena No Significant change. Runway 24: Damp, 51-100% contamination with <1mm, friction coefficient 0.55.
Neobrađeno UUWW 262130Z 20004MPS 9999 FEW015 OVC028 02/M00 Q1008 R24/190055 NOSIG

MVFR

2°C / 0°C

[Više]
Vetar 210º 8kt
Vidljivost 9000m
Prognoza -
Oblaci Few Clouds 1300ft
Overcast 2500ft
Pritisak 1007
Promena No Significant change. Runway 24: Damp, 51-100% contamination with <1mm, friction coefficient 0.55.
Neobrađeno UUWW 262100Z 21004MPS 9000 FEW013 OVC025 02/00 Q1007 R24/190055 NOSIG

MVFR

2°C / 0°C

[Više]
Vetar 200º 10kt
Vidljivost 9000m
Prognoza -
Oblaci Broken Clouds 1300ft
Overcast 2500ft
Pritisak 1007
Promena No Significant change. Runway 24: Damp, 51-100% contamination with <1mm, friction coefficient 0.55.
Neobrađeno UUWW 262030Z 20005MPS 9000 BKN013 OVC025 02/M00 Q1007 R24/190055 NOSIG

MVFR

2°C / 0°C

[Više]
Vetar 200º 10kt
Vidljivost 9000m
Prognoza -
Oblaci Broken Clouds 1300ft
Overcast 2600ft
Pritisak 1007
Promena No Significant change. Runway 24: Damp, 51-100% contamination with <1mm, friction coefficient 0.55.
Neobrađeno UUWW 262000Z 20005MPS 9000 BKN013 OVC026 02/M00 Q1007 R24/190055 NOSIG

MVFR

2°C / 0°C

[Više]
Vetar 200º 10kt
Vidljivost >10km
Prognoza -
Oblaci Broken Clouds 1300ft
Overcast 3000ft
Pritisak 1007
Promena No Significant change. Runway 24: Damp, 51-100% contamination with <1mm, friction coefficient 0.55.
Neobrađeno UUWW 261930Z 20005MPS 9999 BKN013 OVC030 02/M00 Q1007 R24/190055 NOSIG

MVFR

2°C / 0°C

[Više]
Vetar 210º 12kt
Vidljivost >10km
Prognoza -
Oblaci Broken Clouds 1400ft
Overcast 3800ft
Pritisak 1007
Promena No Significant change. Runway 24: Damp, 51-100% contamination with <1mm, friction coefficient 0.55.
Neobrađeno UUWW 261900Z 21006MPS 9999 BKN014 OVC038 02/M00 Q1007 R24/190055 NOSIG

MVFR

2°C / 0°C

[Više]
Vetar 210º 12kt Gust 21kt
Vidljivost >10km
Prognoza -
Oblaci Broken Clouds 1400ft
Overcast 3600ft
Pritisak 1006
Promena No Significant change. Runway 24: Damp, 51-100% contamination with <1mm, friction coefficient 0.55.
Neobrađeno UUWW 261830Z 21006G11MPS 9999 BKN014 OVC036 02/M00 Q1006 R24/190055 NOSIG

MVFR

2°C / -1°C

[Više]
Vetar 210º 12kt
Vidljivost >10km
Prognoza -
Oblaci Overcast 1300ft
Pritisak 1006
Promena No Significant change. Runway 24: Damp, 51-100% contamination with <1mm, friction coefficient 0.55.
Neobrađeno UUWW 261800Z 21006MPS 9999 OVC013 02/M01 Q1006 R24/190055 NOSIG

MVFR

2°C / 0°C

[Više]
Vetar 210º 12kt
Vidljivost >10km
Prognoza -
Oblaci Overcast 1400ft
Pritisak 1006
Promena No Significant change. Runway 24: Damp, 51-100% contamination with <1mm, friction coefficient 0.55.
Neobrađeno UUWW 261730Z 21006MPS 9999 OVC014 02/M00 Q1006 R24/190055 NOSIG

MVFR

2°C / -1°C

[Više]
Vetar 210º 12kt
Vidljivost >10km
Prognoza -
Oblaci Overcast 1500ft
Pritisak 1006
Promena No Significant change. Runway 24: Damp, 51-100% contamination with <1mm, friction coefficient 0.55.
Neobrađeno UUWW 261700Z 21006MPS 9999 OVC015 02/M01 Q1006 R24/190055 NOSIG

MVFR

2°C / -1°C

[Više]
Vetar 200º 12kt
Vidljivost >10km
Prognoza -
Oblaci Overcast 1500ft
Pritisak 1006
Promena No Significant change. Runway 24: Damp, 51-100% contamination with <1mm, friction coefficient 0.55.
Neobrađeno UUWW 261630Z 20006MPS 9999 OVC015 02/M01 Q1006 R24/190055 NOSIG

MVFR

2°C / -1°C

[Više]
Vetar 200º 12kt
Vidljivost >10km
Prognoza -
Oblaci Overcast 1500ft
Pritisak 1006
Promena No Significant change. Runway 24: Damp, 51-100% contamination with <1mm, friction coefficient 0.55.
Neobrađeno UUWW 261600Z 20006MPS 9999 OVC015 02/M01 Q1006 R24/190055 NOSIG

MVFR

2°C / -1°C

[Više]
Vetar 190º 10kt
Vidljivost >10km
Prognoza -
Oblaci Overcast 1300ft
Pritisak 1006
Promena No Significant change. Runway 24: Damp, 51-100% contamination with <1mm, friction coefficient 0.55.
Neobrađeno UUWW 261530Z 19005MPS 9999 OVC013 02/M01 Q1006 R24/190055 NOSIG

TAF za 55.6°S 37.27°I (UUWW)

From till


Maximum Temperature 3ºC on . Minimum Temperature 1ºC on .
From till Wind 150º 10kt. Visibility 6000m. Overcast 700ft.
Temporarly from till Visibility 1500m. Light Rain Light Snow Mist . Broken Clouds 300ft.
Temporarly from till Wind 160º 16kt. Gust 29kt. Visibility 1500m. Showers Rain Showers Snow . Broken Clouds 300ft. Broken Clouds 1600ft.
Temporarly from till Visibility 1100m. Light Showers Rain Light Showers Snow Mist . Broken Clouds 400ft. Broken Clouds 1200ft.

Neobrađeno: TAF UUWW 270158Z 2703/2803 15005MPS 6000 OVC007 TX03/2803Z TN01/2704Z TEMPO 2703/2707 1500 -RASN BR BKN003 TEMPO 2712/2722 16008G15MPS 1500 SHRASN BKN003 BKN016CB TEMPO 2722/2803 1100 -SHRASN BR BKN004 BKN012CB

Trenutni satelitski snimci i slike kiše za 55.6°S 37.27°I

Marker lokacije postavljen je na 55.6°S 37.27°I. [Više]

Satelitski snimci u realnom vremenu kombinuju vidljivu svetlost tokom dana sa infracrvenim zračenjem tokom noći. Noću slika nije tamna jer infracrveno zračenje može otkriti temperaturne razlike. Nažalost, niski oblaci i magla teško se mogu razlikovati od temperature zemlje tako da mogu biti skoro nevidljivi tokom noći. Meteosat satelitski snimci za Evropu se ažuriraju u realnom vremenu na svakih 5 minuta. Slnimci GOES-16/GOES-17 (Severna i Južna Amerika) and Himawari (Azia) ažuriraju se na svakih 10 minuta.

Autorsko pravo 2021 EUMETSAT / meteoblue. / Autorsko pravo 2021 meteoblue

Radar i padavine kratka prognoza za 55.6°S 37.27°I

Rominjati
Lak
Umjereno
Teška
Vrlo teško
Zdravo

Marker lokacije postavljen je na 55.6°S 37.27°I. Ova animacija prikazuje radar padavina za poslednji sat, kao i 1h prognozu. Kiša ili slab snijeg mogu biti nevidljivi za radar. Intenzitet padavina je označen bojom, u rasponu od svetloplave do narandžaste.